This is the latest recevied weather packets stored in our database for station/object N0QWM. If no packets are shown the sender has not sent any weather packets the latest 10 day(s).
| Time | Temp. | Humidity | Pressure | Rain* | Wind** | Luminosity | Snow |
|---|---|---|---|---|---|---|---|
| 1778264951 | 18.89° C | 71% | 1020.5 hPa | 0 mm | - | 146 W/m² | - |
| 1778264649 | 18.89° C | 71% | 1021 hPa | 0 mm | - | 165 W/m² | - |
| 1778264344 | 18.89° C | 70% | 1021 hPa | 0 mm | - | 167 W/m² | - |
| 1778264041 | 18.89° C | 70% | 1020.8 hPa | 0 mm | - | 138 W/m² | - |
| 1778263738 | 18.89° C | 69% | 1021 hPa | 0 mm | - | 146 W/m² | - |
| 1778263435 | 18.89° C | 69% | 1021.2 hPa | 0 mm | - | 197 W/m² | - |
| 1778263131 | 18.89° C | 68% | 1021.1 hPa | 0 mm | - | 184 W/m² | - |
| 1778262828 | 18.89° C | 70% | 1021.2 hPa | 0 mm | - | 168 W/m² | - |
| 1778262526 | 18.89° C | 71% | 1021.1 hPa | 0 mm | - | 174 W/m² | - |
| 1778262223 | 18.89° C | 66% | 1021.1 hPa | 0 mm | - | 183 W/m² | - |
| 1778261919 | 18.89° C | 69% | 1021.6 hPa | 0 mm | - | 167 W/m² | - |
| 1778261617 | 18.33° C | 69% | 1021.8 hPa | 0 mm | - | 163 W/m² | - |
| 1778261312 | 18.89° C | 66% | 1021.3 hPa | 0 mm | - | 150 W/m² | - |
| 1778261010 | 18.89° C | 64% | 1021.2 hPa | 0 mm | - | 166 W/m² | - |
| 1778260706 | 18.89° C | 65% | 1021.7 hPa | 0 mm | - | 181 W/m² | - |
| 1778260402 | 18.89° C | 62% | 1021.8 hPa | 0 mm | - | 289 W/m² | - |
| 1778260099 | 18.89° C | 62% | 1021.9 hPa | 0 mm | - | 232 W/m² | - |
| 1778259798 | 18.89° C | 66% | 1021.8 hPa | 0 mm | - | 229 W/m² | - |
| 1778259494 | 18.89° C | 67% | 1021.6 hPa | 0 mm | - | 252 W/m² | - |
| 1778259191 | 18.89° C | 66% | 1021.9 hPa | 0 mm | - | 224 W/m² | - |
| 1778258887 | 18.89° C | 66% | 1022 hPa | 0 mm | - | 212 W/m² | - |
| 1778258584 | 18.89° C | 67% | 1022.1 hPa | 0 mm | - | 220 W/m² | - |
| 1778258282 | 18.89° C | 63% | 1022 hPa | 0 mm | - | 223 W/m² | - |
| 1778257979 | 18.89° C | 65% | 1022.3 hPa | 0 mm | - | 257 W/m² | - |
| 1778257675 | 19.44° C | 68% | 1022.3 hPa | 0 mm | - | 256 W/m² | - |
* Rain latest hour (hover to see other rain measurements)
** Current wind speed in m/s (hover to see current wind gust speed)